Location: La Pernelle
(49.6188°N, 1.2999°W)
Time: 16:47:12
(UTC+00:00)

Cosmos 1300 - Pass Details

Date: 12 June 2021
Orbit: 509 x 513 km, 82.5° (Epoch: 30 July)

Event Time Altitude Azimuth Distance (km) Brightness Sun altitude
Rises 23:07:43 0° 345° (NNW) 2,642 8.2 -16.1°
Reaches altitude 10° 23:09:54 10° 340° (NNW) 1,749 6.7 -16.1°
Maximum altitude 23:13:35 48° 265° (W) 680 3.3 -16.3°
Enters shadow 23:15:15 28° 207° (SSW) 992 3.7 -16.3°
